Flag for Canada Weather past 2 weeks in Lethbridge, Alberta, Canada

Now
79 °F

Partly sunny.


Feels Like: 80 °F
Forecast: 57 / 78 °F
Wind: 10 mph from East

Location: Lethbridge

Current Time: Aug 1, 2014 at 6:34:34 PM

Latest Report: Aug 1, 2014 at 6:00 PM


Visibility: 20 mi

Pressure: 30.12 "Hg

Humidity: 48%

Dew point: 57 °F

Location of LethbridgeLocation

Historic Weather in Lethbridge — Graph

°F

Lethbridge temperature yesterday

Maximum temperature yesterday: 84 °F (at 6:00 PM)
Minimum temperature yesterday: 52 °F (at 6:00 AM)
Average temperature yesterday: 71 °F

Past Weeks' High & Low Weather Summary

 TemperatureHumidityPressure
High90 °F (Jul 29, 4:00 PM)100% (Jul 21, 6:00 AM)30.27 "Hg (Jul 21, 6:00 AM)
Low45 °F (Jul 26, 4:00 AM)27% (Jul 29, 4:00 PM)29.55 "Hg (Jul 17, 6:00 PM)
Average65 °F66%29.98 "Hg
* Reported Jul 17 5:00 PM — Aug 1 5:00 PM, Lethbridge, Weather by CustomWeather, © 2014

Note: Actual official high and low records may vary slightly from our data, if they occured in-between our weather recording intervals... More about our weather records

Advertising

Lethbridge weather history for previous 24 hours

 ConditionsComfort  
Time TempWeatherWind HumidityBarometerVisibility
5:00 PM
Aug 1
79 °FScattered clouds.7 mph48%30.13 "Hg20 mi
4:00 PM79 °FPartly sunny.6 mph48%30.15 "Hg20 mi
3:00 PM79 °FPartly sunny.6 mph48%30.16 "Hg30 mi
2:00 PM75 °FPartly sunny.5 mph54%30.18 "Hg30 mi
1:00 PM73 °FScattered clouds.3 mph57%30.19 "Hg30 mi
12:00 PM72 °FPassing clouds.2 mph57%30.20 "Hg30 mi
11:00 AM70 °FScattered clouds.7 mph60%30.20 "Hg25 mi
10:00 AM68 °FScattered clouds.5 mph64%30.22 "Hg25 mi
9:00 AM66 °FScattered clouds.7 mph68%30.21 "Hg20 mi
8:00 AM63 °FPassing clouds.7 mph83%30.18 "Hg15 mi
7:00 AM59 °FPassing clouds.7 mph94%30.16 "Hg15 mi
6:00 AM57 °FPassing clouds.13 mph94%30.13 "Hg15 mi
5:00 AM63 °FPassing clouds.17 mph83%30.12 "Hg9 mi
4:00 AM57 °FPassing clouds.9 mph88%30.12 "Hg9 mi
3:00 AM61 °FPassing clouds.12 mph88%30.11 "Hg9 mi
2:00 AM61 °FPassing clouds.5 mph88%30.08 "Hg9 mi
1:00 AM64 °FClear.7 mph83%30.06 "Hg9 mi
12:00 AM70 °FPassing clouds.10 mph73%30.08 "Hg9 mi
11:00 PM
Jul 31
73 °FClear.14 mph65%30.06 "Hg9 mi
10:00 PM66 °FScattered clouds.7 mph83%30.07 "Hg15 mi
9:00 PM73 °FScattered clouds.3 mph69%30.04 "Hg20 mi
8:00 PM77 °FScattered clouds.3 mph61%30.03 "Hg20 mi
7:00 PM82 °FScattered clouds.6 mph48%30.04 "Hg20 mi
6:00 PM84 °FPartly sunny.5 mph43%30.06 "Hg20 mi
Weather by CustomWeather, © 2014

See weather overviewHow to use our weather pages